#�ϑ�����,���ϕ���,���ϕ���,�ő啗��,�ő啗����������,�ő�u�ԕ���,�ő�u�ԕ�����������
#(�N����),(m/s)   ,(16����),(m/s)   ,(16����)        ,(m/s)       ,(16����)            
2013/1/25 0:01,1,14,1.1,15,1.3,16
2013/1/25 0:02,0.8,14,1,15,1.1,15
2013/1/25 0:03,0.8,14,0.8,15,1.3,15
2013/1/25 0:04,0.8,14,0.8,15,1.3,16
2013/1/25 0:05,0.8,14,0.8,15,1.5,2
2013/1/25 0:06,0.8,15,0.8,15,2.1,2
2013/1/25 0:07,0.9,16,0.9,15,2.7,1
2013/1/25 0:08,1,16,1,14,2.2,14
2013/1/25 0:09,1.1,16,1.1,14,1.6,15
2013/1/25 0:10,1,16,1.1,14,0.8,13
2013/1/25 0:11,1,16,1,16,0.1,7
2013/1/25 0:12,0.9,16,1,16,0.9,1
2013/1/25 0:13,0.9,16,0.9,16,0.9,16
2013/1/25 0:14,0.8,16,0.9,16,0.4,14
2013/1/25 0:15,0.7,15,0.8,16,0,10
2013/1/25 0:16,0.6,15,0.7,16,0.8,15
2013/1/25 0:17,0.5,15,0.6,16,1.1,15
2013/1/25 0:18,0.4,15,0.5,16,0.9,15
2013/1/25 0:19,0.3,15,0.4,16,0.8,15
2013/1/25 0:20,0.4,15,0.4,16,0.8,15
2013/1/25 0:21,0.4,15,0.4,16,0.8,14
2013/1/25 0:22,0.4,15,0.4,16,0.4,14
2013/1/25 0:23,0.4,14,0.4,16,0.5,8
2013/1/25 0:24,0.4,14,0.4,16,0.9,8
2013/1/25 0:25,0.4,15,0.4,15,0.3,2
2013/1/25 0:26,0.4,15,0.4,15,0.4,2
2013/1/25 0:27,0.3,16,0.4,15,0,1
2013/1/25 0:28,0.2,16,0.3,15,0,1
2013/1/25 0:29,0.2,1,0.2,15,0.1,2
2013/1/25 0:30,0.2,1,0.2,15,0.6,16
2013/1/25 0:31,0.2,1,0.2,15,1,16
2013/1/25 0:32,0.2,2,0.2,14,0.6,16
2013/1/25 0:33,0.3,1,0.3,14,0.8,15
2013/1/25 0:34,0.3,1,0.3,14,0.8,15
2013/1/25 0:35,0.3,16,0.3,15,0.9,15
2013/1/25 0:36,0.4,16,0.4,15,0.8,15
2013/1/25 0:37,0.5,16,0.5,16,1,15
2013/1/25 0:38,0.5,16,0.5,16,1.1,15
2013/1/25 0:39,0.5,16,0.5,16,0.4,1
2013/1/25 0:40,0.6,16,0.6,16,1,15
2013/1/25 0:41,0.6,15,0.6,16,1.4,15
2013/1/25 0:42,0.6,15,0.6,16,0.5,15
2013/1/25 0:43,0.6,15,0.6,16,0.5,16
2013/1/25 0:44,0.6,15,0.6,16,1.1,15
2013/1/25 0:45,0.6,15,0.6,16,1.1,15
2013/1/25 0:46,0.6,15,0.6,16,0.8,16
2013/1/25 0:47,0.5,15,0.6,16,0.5,16
2013/1/25 0:48,0.5,15,0.5,16,0.3,15
2013/1/25 0:49,0.4,15,0.5,16,0,15
2013/1/25 0:50,0.3,15,0.4,16,0,15
2013/1/25 0:51,0.3,16,0.3,15,0,1
2013/1/25 0:52,0.3,16,0.3,15,0.6,2
2013/1/25 0:53,0.3,16,0.3,15,0.6,2
2013/1/25 0:54,0.3,16,0.3,15,0.6,1
2013/1/25 0:55,0.2,16,0.2,15,0.9,1
2013/1/25 0:56,0.3,16,0.3,15,1,1
2013/1/25 0:57,0.3,1,0.3,15,1.4,1
2013/1/25 0:58,0.4,1,0.4,15,1.5,1
2013/1/25 0:59,0.5,1,0.5,1,1.6,1
2013/1/25 1:00,0.7,1,0.7,1,2,16
2013/1/25 1:01,0.8,1,0.8,1,1.6,16
2013/1/25 1:02,0.9,1,0.9,1,1.9,15
2013/1/25 1:03,1,16,1,16,1.8,15
2013/1/25 1:04,1,16,1,16,1,15
2013/1/25 1:05,0.9,16,1,16,0.1,16
2013/1/25 1:06,0.9,16,0.9,16,1,15
2013/1/25 1:07,0.9,16,0.9,16,1.8,16
2013/1/25 1:08,0.9,16,0.9,16,1.6,15
2013/1/25 1:09,0.9,16,0.9,16,1.4,4
2013/1/25 1:10,0.9,16,0.9,16,2,3
2013/1/25 1:11,0.8,16,0.9,16,1,3
2013/1/25 1:12,0.8,15,0.8,16,1.4,11
2013/1/25 1:13,0.8,15,0.8,16,1.9,10
2013/1/25 1:14,0.8,15,0.8,16,1.8,9
2013/1/25 1:15,1,13,1,13,1.8,8
2013/1/25 1:16,1,10,1,13,1.6,8
2013/1/25 1:17,1,9,1.1,10,1,7
2013/1/25 1:18,1,8,1,10,1.3,8
2013/1/25 1:19,1,9,1,10,1.4,9
2013/1/25 1:20,0.9,9,1,10,1.3,10
2013/1/25 1:21,0.9,9,0.9,10,0.6,11
2013/1/25 1:22,0.8,9,0.9,10,0.1,7
2013/1/25 1:23,0.7,9,0.8,10,0.8,15
2013/1/25 1:24,0.7,9,0.7,10,0.8,15
2013/1/25 1:25,0.6,9,0.6,10,1.4,15
2013/1/25 1:26,0.5,10,0.6,10,0.6,2
2013/1/25 1:27,0.5,11,0.5,9,1.1,3
2013/1/25 1:28,0.4,13,0.5,8,0.8,2
2013/1/25 1:29,0.4,15,0.4,9,1.3,1
2013/1/25 1:30,0.5,15,0.5,9,1.6,14
2013/1/25 1:31,0.5,16,0.5,9,1.1,14
2013/1/25 1:32,0.6,16,0.6,9,1,16
2013/1/25 1:33,0.6,16,0.6,9,0.8,15
2013/1/25 1:34,0.6,16,0.6,9,1.3,15
2013/1/25 1:35,0.7,16,0.7,16,1,15
2013/1/25 1:36,0.7,16,0.7,16,0.9,15
2013/1/25 1:37,0.7,15,0.7,16,0.6,15
2013/1/25 1:38,0.6,15,0.7,16,0.5,14
2013/1/25 1:39,0.5,15,0.6,16,0.1,14
2013/1/25 1:40,0.4,15,0.5,16,0,14
2013/1/25 1:41,0.4,15,0.4,16,0.1,3
2013/1/25 1:42,0.3,15,0.4,16,0.1,4
2013/1/25 1:43,0.3,15,0.3,16,0.1,6
2013/1/25 1:44,0.2,15,0.3,16,0,6
2013/1/25 1:45,0.1,16,0.2,16,0.5,2
2013/1/25 1:46,0.1,1,0.1,16,1.1,2
2013/1/25 1:47,0.2,2,0.2,15,1.3,2
2013/1/25 1:48,0.3,2,0.3,15,1.1,2
2013/1/25 1:49,0.3,3,0.3,15,0.8,2
2013/1/25 1:50,0.4,3,0.4,15,0.8,3
2013/1/25 1:51,0.4,3,0.4,15,0.5,3
2013/1/25 1:52,0.4,3,0.4,3,0.1,3
2013/1/25 1:53,0.4,2,0.4,3,0.5,16
2013/1/25 1:54,0.5,2,0.5,2,0.6,15
2013/1/25 1:55,0.6,1,0.6,1,1,15
2013/1/25 1:56,0.6,1,0.6,1,1,16
2013/1/25 1:57,0.6,1,0.6,1,1.4,16
2013/1/25 1:58,0.6,1,0.6,1,1.3,16
2013/1/25 1:59,0.6,16,0.6,1,1.5,15
2013/1/25 2:00,0.7,16,0.7,16,1.5,15
2013/1/25 2:01,0.8,16,0.8,16,1.3,15
2013/1/25 2:02,0.9,16,0.9,16,1.1,16
2013/1/25 2:03,0.9,16,0.9,16,1,16
2013/1/25 2:04,0.9,16,0.9,16,0.8,16
2013/1/25 2:05,0.9,16,0.9,16,0.5,1
2013/1/25 2:06,0.9,16,0.9,16,1.4,16
2013/1/25 2:07,0.9,16,0.9,16,1.1,1
2013/1/25 2:08,0.9,16,0.9,16,1.1,3
2013/1/25 2:09,0.9,16,0.9,16,1.3,3
2013/1/25 2:10,0.8,1,0.9,16,1,2
2013/1/25 2:11,0.7,1,0.8,16,1.1,15
2013/1/25 2:12,0.8,1,0.8,16,1.4,15
2013/1/25 2:13,0.7,16,0.7,16,0.8,14
2013/1/25 2:14,0.8,16,0.8,16,1,14
2013/1/25 2:15,0.8,16,0.8,16,1,15
2013/1/25 2:16,0.8,16,0.8,16,1,16
2013/1/25 2:17,0.7,16,0.7,16,0.9,2
2013/1/25 2:18,0.7,16,0.7,16,0.6,3
2013/1/25 2:19,0.6,16,0.7,16,0.1,2
2013/1/25 2:20,0.5,16,0.6,1,0.5,15
2013/1/25 2:21,0.5,16,0.5,1,0.8,16
2013/1/25 2:22,0.5,16,0.5,16,0.8,16
2013/1/25 2:23,0.4,16,0.5,16,0.3,16
2013/1/25 2:24,0.4,16,0.4,16,0.9,11
2013/1/25 2:25,0.4,16,0.4,16,0.9,10
2013/1/25 2:26,0.3,16,0.4,16,0.8,1
2013/1/25 2:27,0.4,16,0.4,16,1.1,1
2013/1/25 2:28,0.4,16,0.4,16,1.5,1
2013/1/25 2:29,0.6,15,0.6,16,2.1,16
2013/1/25 2:30,0.6,16,0.6,15,0.5,15
2013/1/25 2:31,0.5,16,0.6,15,0.6,1
2013/1/25 2:32,0.6,16,0.6,15,1,16
2013/1/25 2:33,0.6,16,0.6,15,1.4,2
2013/1/25 2:34,0.6,16,0.6,15,0.3,16
2013/1/25 2:35,0.5,1,0.6,15,1,10
2013/1/25 2:36,0.6,16,0.6,15,1.4,10
2013/1/25 2:37,0.5,16,0.6,15,0.3,8
2013/1/25 2:38,0.4,1,0.5,15,0.6,3
2013/1/25 2:39,0.4,1,0.4,15,1.6,1
2013/1/25 2:40,0.4,1,0.4,16,1.5,2
2013/1/25 2:41,0.4,16,0.4,16,1.1,3
2013/1/25 2:42,0.5,1,0.5,16,1.4,2
2013/1/25 2:43,0.4,16,0.5,16,0.6,13
2013/1/25 2:44,0.5,16,0.5,1,1.3,13
2013/1/25 2:45,0.6,14,0.6,1,1.5,11
2013/1/25 2:46,0.6,14,0.6,16,1,12
2013/1/25 2:47,0.6,14,0.6,15,0.8,11
2013/1/25 2:48,0.7,13,0.7,14,0.6,11
2013/1/25 2:49,0.6,13,0.7,14,0.9,12
2013/1/25 2:50,0.6,12,0.6,14,1.3,11
2013/1/25 2:51,0.7,12,0.7,14,1.3,10
2013/1/25 2:52,0.7,11,0.7,14,1.3,10
2013/1/25 2:53,0.7,11,0.7,14,1.1,10
2013/1/25 2:54,0.7,11,0.7,14,1,9
2013/1/25 2:55,0.6,11,0.7,14,0.8,11
2013/1/25 2:56,0.6,11,0.6,14,1.6,12
2013/1/25 2:57,0.6,11,0.6,14,1.6,12
2013/1/25 2:58,0.7,11,0.7,13,1.9,11
2013/1/25 2:59,0.8,11,0.8,11,2.2,13
2013/1/25 3:00,1,11,1,11,3.3,12
2013/1/25 3:01,1.1,11,1.1,11,2.5,10
2013/1/25 3:02,1.1,11,1.1,11,2.7,10
2013/1/25 3:03,1.1,12,1.2,11,1.6,14
2013/1/25 3:04,1.2,12,1.2,11,2.7,14
2013/1/25 3:05,1.3,12,1.3,12,2.5,12
2013/1/25 3:06,1.4,12,1.4,12,2,14
2013/1/25 3:07,1.5,13,1.5,12,3.5,12
2013/1/25 3:08,1.6,12,1.6,13,3,11
2013/1/25 3:09,1.6,13,1.6,13,2.5,12
2013/1/25 3:10,1.4,13,1.6,13,1.1,11
2013/1/25 3:11,1.3,13,1.4,13,1.6,15
2013/1/25 3:12,1.3,13,1.3,13,2.1,11
2013/1/25 3:13,1.7,13,1.7,13,9.2,10
2013/1/25 3:14,1.8,13,1.8,13,5.7,13
2013/1/25 3:15,1.9,12,1.9,13,3.3,10
2013/1/25 3:16,1.9,12,1.9,13,3,9
2013/1/25 3:17,2,12,2,12,3.3,10
2013/1/25 3:18,2,12,2,12,3.2,11
2013/1/25 3:19,2.1,11,2.1,11,4.1,11
2013/1/25 3:20,2.3,11,2.3,11,4.3,10
2013/1/25 3:21,2.5,11,2.5,11,3.7,10
2013/1/25 3:22,2.6,10,2.6,11,3.1,10
2013/1/25 3:23,2.3,10,2.6,11,2.5,9
2013/1/25 3:24,2.1,10,2.3,11,2.5,10
2013/1/25 3:25,2.1,10,2.1,11,2,12
2013/1/25 3:26,2,10,2.1,11,2.1,11
2013/1/25 3:27,1.9,11,2,11,2.4,11
2013/1/25 3:28,1.9,10,2,11,2.6,10
2013/1/25 3:29,1.8,11,1.9,11,2.1,11
2013/1/25 3:30,1.7,11,1.8,11,2.5,11
2013/1/25 3:31,1.6,11,1.7,11,2.7,11
2013/1/25 3:32,1.5,11,1.6,10,2.5,10
2013/1/25 3:33,1.5,11,1.5,10,2,12
2013/1/25 3:34,1.4,11,1.5,10,1.4,13
2013/1/25 3:35,1.4,11,1.4,10,2,13
2013/1/25 3:36,1.4,11,1.4,10,1.9,10
2013/1/25 3:37,1.4,11,1.4,11,1.9,9
2013/1/25 3:38,1.5,11,1.5,11,4.1,11
2013/1/25 3:39,1.5,11,1.5,11,2.7,12
2013/1/25 3:40,1.5,11,1.5,11,1.8,11
2013/1/25 3:41,1.5,11,1.6,11,1.9,11
2013/1/25 3:42,1.5,11,1.5,11,1.6,11
2013/1/25 3:43,1.4,12,1.4,11,1.6,12
2013/1/25 3:44,1.4,11,1.4,11,2.1,11
2013/1/25 3:45,1.4,11,1.5,11,1.6,13
2013/1/25 3:46,1.5,11,1.5,11,3,10
2013/1/25 3:47,1.5,12,1.5,11,2,13
2013/1/25 3:48,1.3,12,1.5,11,1.9,12
2013/1/25 3:49,1.3,12,1.3,11,2.2,12
2013/1/25 3:50,1.3,12,1.3,11,2.5,13
2013/1/25 3:51,1.3,12,1.3,11,2.7,13
2013/1/25 3:52,1.3,12,1.3,11,2.1,12
2013/1/25 3:53,1.4,12,1.4,11,3,13
2013/1/25 3:54,1.5,12,1.5,11,3.3,11
2013/1/25 3:55,1.5,12,1.5,11,2.1,9
2013/1/25 3:56,1.4,12,1.5,11,2.5,13
2013/1/25 3:57,1.4,12,1.4,12,2.5,13
2013/1/25 3:58,1.4,12,1.4,12,1.8,12
2013/1/25 3:59,1.3,12,1.4,12,1.1,12
2013/1/25 4:00,1.3,12,1.3,12,1.5,11
2013/1/25 4:01,1.2,12,1.2,12,2.6,13
2013/1/25 4:02,1.3,12,1.3,12,3.3,13
2013/1/25 4:03,1.2,12,1.3,12,1.3,10
2013/1/25 4:04,1,12,1.1,12,1,16
2013/1/25 4:05,1.1,12,1.1,12,2.7,12
2013/1/25 4:06,1.1,12,1.1,12,2.4,12
2013/1/25 4:07,1.2,12,1.2,12,3.6,12
2013/1/25 4:08,1.3,13,1.3,12,3.7,12
2013/1/25 4:09,1.4,13,1.4,13,2.5,12
2013/1/25 4:10,1.5,13,1.5,13,3.7,12
2013/1/25 4:11,1.7,12,1.7,12,5,11
2013/1/25 4:12,1.8,12,1.8,12,5.4,12
2013/1/25 4:13,2,12,2,12,6.7,13
2013/1/25 4:14,2.2,12,2.2,12,4.9,11
2013/1/25 4:15,2.2,12,2.2,12,2.9,9
2013/1/25 4:16,2.2,12,2.3,12,3.3,13
2013/1/25 4:17,2.1,12,2.2,12,3.5,12
2013/1/25 4:18,2.1,12,2.2,12,3.3,10
2013/1/25 4:19,2.2,12,2.2,12,4.8,13
2013/1/25 4:20,2.3,12,2.3,12,3.9,13
2013/1/25 4:21,2.3,12,2.4,12,5.1,12
2013/1/25 4:22,2.3,12,2.3,12,4.5,13
2013/1/25 4:23,2.3,12,2.3,12,4.4,14
2013/1/25 4:24,2.2,12,2.3,12,3.5,13
2013/1/25 4:25,2.3,12,2.3,12,3.9,12
2013/1/25 4:26,2.3,12,2.3,12,2.9,13
2013/1/25 4:27,2.3,12,2.3,12,3,12
2013/1/25 4:28,2.3,12,2.3,12,2,12
2013/1/25 4:29,2.1,13,2.3,12,1.8,14
2013/1/25 4:30,1.9,13,2.1,12,1.5,12
2013/1/25 4:31,1.7,13,1.9,12,2.6,15
2013/1/25 4:32,1.6,13,1.7,12,3.5,16
2013/1/25 4:33,1.5,13,1.6,12,2.9,15
2013/1/25 4:34,1.4,13,1.5,12,2.2,15
2013/1/25 4:35,1.3,13,1.4,12,1.3,9
2013/1/25 4:36,1.2,13,1.3,12,1.3,9
2013/1/25 4:37,1.1,13,1.2,12,1.5,14
2013/1/25 4:38,1.1,13,1.1,12,3.3,16
2013/1/25 4:39,1.2,13,1.2,13,3.3,11
2013/1/25 4:40,1.3,13,1.3,13,2.9,11
2013/1/25 4:41,1.5,13,1.5,13,5.2,13
2013/1/25 4:42,1.5,13,1.5,13,3.3,15
2013/1/25 4:43,1.5,12,1.5,13,2.5,16
2013/1/25 4:44,1.7,12,1.7,12,4.4,11
2013/1/25 4:45,1.9,13,1.9,13,4.9,13
2013/1/25 4:46,2.1,13,2.1,13,3.8,11
2013/1/25 4:47,2.3,12,2.3,12,4.2,10
2013/1/25 4:48,2.4,12,2.4,12,3.7,9
2013/1/25 4:49,2.3,12,2.4,12,3.3,8
2013/1/25 4:50,2.2,12,2.3,12,2.7,9
2013/1/25 4:51,2.2,11,2.2,12,4.2,13
2013/1/25 4:52,2.2,11,2.2,12,4.8,16
2013/1/25 4:53,2.3,11,2.3,12,5.1,1
2013/1/25 4:54,2.1,12,2.3,12,3.2,1
2013/1/25 4:55,2,12,2.1,12,3.2,15
2013/1/25 4:56,2,12,2,12,4.5,15
2013/1/25 4:57,2.1,13,2.1,12,5.7,15
2013/1/25 4:58,2.3,14,2.3,12,5.6,15
2013/1/25 4:59,2.7,14,2.7,14,7.6,15
2013/1/25 5:00,2.9,14,2.9,14,6.2,15
2013/1/25 5:01,3,14,3,14,6.3,13
2013/1/25 5:02,3.1,14,3.1,14,5.6,13
2013/1/25 5:03,3.1,14,3.1,14,6.7,12
2013/1/25 5:04,3.2,14,3.2,14,3.9,13
2013/1/25 5:05,3.3,14,3.3,14,4.7,13
2013/1/25 5:06,3.3,14,3.3,14,3.8,15
2013/1/25 5:07,3.2,14,3.3,14,5.6,16
2013/1/25 5:08,3.2,14,3.3,14,5.2,15
2013/1/25 5:09,2.8,14,3.1,14,2.5,14
2013/1/25 5:10,2.4,14,2.7,14,1.3,11
2013/1/25 5:11,2.2,14,2.4,14,2.6,14
2013/1/25 5:12,2.2,14,2.2,14,3.2,13
2013/1/25 5:13,2,14,2.2,14,2.4,11
2013/1/25 5:14,1.9,14,2,14,2.5,11
2013/1/25 5:15,1.8,13,1.9,14,2.6,9
2013/1/25 5:16,1.9,13,1.9,14,4.2,11
2013/1/25 5:17,1.8,13,1.9,14,4.8,13
2013/1/25 5:18,1.8,12,1.8,14,3.9,13
2013/1/25 5:19,1.9,12,1.9,14,5.6,9
2013/1/25 5:20,2.2,12,2.2,14,6.7,10
2013/1/25 5:21,2.4,12,2.4,12,5.7,12
2013/1/25 5:22,2.6,11,2.6,11,6.8,10
2013/1/25 5:23,2.7,11,2.7,11,4.7,12
2013/1/25 5:24,2.8,11,2.8,11,5.8,12
2013/1/25 5:25,3.1,11,3.1,11,7.2,8
2013/1/25 5:26,3.1,11,3.1,11,4.8,11
2013/1/25 5:27,3.2,11,3.2,11,7.4,9
2013/1/25 5:28,3.3,11,3.3,11,5.5,13
2013/1/25 5:29,3.3,11,3.3,11,6.3,12
2013/1/25 5:30,3.4,11,3.4,11,7.9,12
2013/1/25 5:31,3.4,11,3.4,11,5.4,10
2013/1/25 5:32,3.3,11,3.4,11,6,11
2013/1/25 5:33,3.4,11,3.4,11,7,12
2013/1/25 5:34,3.7,11,3.7,11,6.8,10
2013/1/25 5:35,3.8,11,3.8,11,9.8,10
2013/1/25 5:36,3.9,11,3.9,11,7.8,11
2013/1/25 5:37,3.9,11,3.9,11,6.4,13
2013/1/25 5:38,3.9,11,4,11,6.7,12
2013/1/25 5:39,4.1,11,4.1,11,6.8,11
2013/1/25 5:40,3.9,11,4.1,11,6.7,12
2013/1/25 5:41,3.8,11,3.9,11,6,10
2013/1/25 5:42,3.8,11,3.8,11,5.8,10
2013/1/25 5:43,3.7,11,3.8,11,7.4,13
2013/1/25 5:44,3.5,12,3.7,11,6,16
2013/1/25 5:45,3.2,12,3.5,11,3.6,15
2013/1/25 5:46,3,13,3.2,11,4.5,13
2013/1/25 5:47,2.8,13,3,11,5.2,16
2013/1/25 5:48,2.8,13,2.8,11,5.6,14
2013/1/25 5:49,2.5,14,2.7,11,3.8,1
2013/1/25 5:50,2.4,14,2.5,11,3.7,12
2013/1/25 5:51,2.4,14,2.4,11,4.2,12
2013/1/25 5:52,2.4,14,2.4,11,3.6,14
2013/1/25 5:53,2.2,14,2.3,11,3.1,12
2013/1/25 5:54,2.2,14,2.2,12,4.8,15
2013/1/25 5:55,2.3,13,2.3,12,4.8,12
2013/1/25 5:56,2.2,13,2.3,13,3.2,14
2013/1/25 5:57,2.3,13,2.3,13,4.8,12
2013/1/25 5:58,2.2,13,2.3,13,4.5,13
2013/1/25 5:59,2.5,13,2.5,14,7,11
2013/1/25 6:00,2.7,13,2.7,13,6.7,12
2013/1/25 6:01,2.9,13,2.9,13,7.4,13
2013/1/25 6:02,3,13,3,13,5.1,12
2013/1/25 6:03,2.9,13,3,13,2.6,10
2013/1/25 6:04,2.9,13,3,13,3.5,15
2013/1/25 6:05,2.9,13,3,13,6.1,11
2013/1/25 6:06,3,12,3,13,3.5,11
2013/1/25 6:07,2.8,12,3,13,3.6,9
2013/1/25 6:08,2.8,12,2.8,13,5.1,10
2013/1/25 6:09,2.7,12,2.7,13,6.2,12
2013/1/25 6:10,2.6,12,2.7,13,6.5,10
2013/1/25 6:11,2.4,12,2.6,13,4.8,11
2013/1/25 6:12,2.4,11,2.4,13,4.9,9
2013/1/25 6:13,2.6,11,2.6,13,6,10
2013/1/25 6:14,2.8,11,2.8,13,6.9,11
2013/1/25 6:15,2.8,11,2.8,12,6.8,11
2013/1/25 6:16,2.8,11,2.9,12,4.8,9
2013/1/25 6:17,2.9,11,2.9,11,4.1,10
2013/1/25 6:18,3,11,3,11,5.1,13
2013/1/25 6:19,2.9,11,3,11,4.2,12
2013/1/25 6:20,2.7,11,2.9,11,3.2,10
2013/1/25 6:21,2.6,11,2.7,11,4.1,10
2013/1/25 6:22,2.6,11,2.6,11,4.7,10
2013/1/25 6:23,2.4,11,2.6,11,3.2,10
2013/1/25 6:24,2.2,11,2.4,11,3.8,10
2013/1/25 6:25,2,11,2.2,11,3,10
2013/1/25 6:26,2,11,2,11,3.1,9
2013/1/25 6:27,1.9,11,2,11,3.3,11
2013/1/25 6:28,1.7,11,1.8,11,3.1,10
2013/1/25 6:29,1.6,11,1.7,11,2.1,13
2013/1/25 6:30,1.7,11,1.7,11,4.3,10
2013/1/25 6:31,1.8,11,1.8,11,5.6,10
2013/1/25 6:32,1.8,11,1.8,11,4.2,12
2013/1/25 6:33,1.8,11,1.8,11,4.2,10
2013/1/25 6:34,1.7,11,1.8,11,2,13
2013/1/25 6:35,1.7,11,1.7,11,2.9,8
2013/1/25 6:36,1.9,11,1.9,11,5.6,10
2013/1/25 6:37,2,11,2,11,3.8,9
2013/1/25 6:38,2,11,2,11,5.4,10
2013/1/25 6:39,2.2,11,2.2,11,4.9,12
2013/1/25 6:40,2.2,11,2.3,11,3.7,12
2013/1/25 6:41,2.1,12,2.2,11,2.2,12
2013/1/25 6:42,2,12,2.1,11,3.3,12
2013/1/25 6:43,2.2,12,2.2,11,6.2,12
2013/1/25 6:44,2.4,11,2.4,12,6.9,11
2013/1/25 6:45,2.6,12,2.6,11,5.8,12
2013/1/25 6:46,2.6,12,2.7,12,6,14
2013/1/25 6:47,2.7,12,2.7,12,5.1,13
2013/1/25 6:48,2.8,12,2.8,12,5.4,14
2013/1/25 6:49,2.9,13,2.9,12,7.6,12
2013/1/25 6:50,3.2,12,3.2,13,6.9,9
2013/1/25 6:51,3.4,12,3.4,12,5.6,10
2013/1/25 6:52,3.5,12,3.5,12,4.4,11
2013/1/25 6:53,3.5,12,3.5,12,5.2,13
2013/1/25 6:54,3.4,13,3.4,12,4.3,12
2013/1/25 6:55,3.4,12,3.4,12,6,10
2013/1/25 6:56,3.4,12,3.5,12,8.3,12
2013/1/25 6:57,3.4,12,3.5,12,4.8,10
2013/1/25 6:58,3.3,12,3.4,12,5.7,12
2013/1/25 6:59,3.3,12,3.4,12,6.8,12
2013/1/25 7:00,3.4,12,3.4,12,7.6,13
2013/1/25 7:01,3.6,12,3.6,12,9.9,12
2013/1/25 7:02,3.8,12,3.8,12,7,13
2013/1/25 7:03,4.1,12,4.1,12,8.4,12
2013/1/25 7:04,4.3,13,4.3,13,7.5,13
2013/1/25 7:05,4.4,13,4.4,13,6.9,12
2013/1/25 7:06,4.4,13,4.4,13,8.5,11
2013/1/25 7:07,4.8,13,4.8,13,10.6,13
2013/1/25 7:08,4.8,13,4.9,13,6.2,13
2013/1/25 7:09,4.6,13,4.8,13,7.4,11
2013/1/25 7:10,4.6,13,4.6,13,8.2,12
2013/1/25 7:11,4.5,12,4.6,13,9.5,11
2013/1/25 7:12,4.3,12,4.6,13,9.9,12
2013/1/25 7:13,4.1,12,4.2,13,7,9
2013/1/25 7:14,4,12,4.1,13,6.4,13
2013/1/25 7:15,4.2,12,4.2,13,10.3,13
2013/1/25 7:16,4,12,4.2,13,6.9,12
2013/1/25 7:17,4,12,4.1,13,10.2,12
2013/1/25 7:18,4.1,12,4.1,13,8.4,12
2013/1/25 7:19,4.2,12,4.2,13,5.2,9
2013/1/25 7:20,4,12,4.2,13,5.4,16
2013/1/25 7:21,3.8,12,4,12,4.3,15
2013/1/25 7:22,3.9,12,4,12,5.5,12
2013/1/25 7:23,4.6,13,4.6,13,13.5,14
2013/1/25 7:24,4.8,13,4.8,13,14.8,15
2013/1/25 7:25,4.5,13,4.8,13,6.9,13
2013/1/25 7:26,4.6,13,4.6,13,7.5,13
2013/1/25 7:27,4.6,13,4.6,13,9.5,16
2013/1/25 7:28,4.6,13,4.6,13,9.2,1
2013/1/25 7:29,4.6,13,4.6,13,5.8,11
2013/1/25 7:30,4.4,13,4.6,13,3.3,1
2013/1/25 7:31,4.4,13,4.4,13,7,9
2013/1/25 7:32,4.8,13,4.8,13,14.9,12
2013/1/25 7:33,4.4,13,4.8,13,11.4,13
2013/1/25 7:34,4.4,13,4.5,13,12.1,16
2013/1/25 7:35,4.6,13,4.6,13,10,15
2013/1/25 7:36,4.6,13,4.6,13,7.8,13
2013/1/25 7:37,4.6,13,4.7,13,10.1,14
2013/1/25 7:38,5.1,13,5.1,13,14.3,11
2013/1/25 7:39,5.4,13,5.4,13,13.6,13
2013/1/25 7:40,6,13,6,13,12.5,15
2013/1/25 7:41,6.3,13,6.3,13,9.3,12
2013/1/25 7:42,6.3,13,6.3,13,11.3,12
2013/1/25 7:43,6.3,13,6.4,13,10.5,13
2013/1/25 7:44,6.1,13,6.3,13,9.3,12
2013/1/25 7:45,6.1,12,6.1,13,9.7,13
2013/1/25 7:46,6,12,6.1,13,6.9,9
2013/1/25 7:47,5.9,12,6,13,9.7,11
2013/1/25 7:48,5.6,12,5.9,13,8.2,13
2013/1/25 7:49,5.5,12,5.6,13,8.6,12
2013/1/25 7:50,5.1,12,5.4,13,7.4,12
2013/1/25 7:51,4.7,12,5,13,7.8,12
2013/1/25 7:52,4.6,12,4.7,13,11,12
2013/1/25 7:53,4.5,12,4.5,13,9.5,12
2013/1/25 7:54,4.4,12,4.5,13,3.9,16
2013/1/25 7:55,4.4,13,4.4,12,10.8,16
2013/1/25 7:56,4.5,13,4.5,12,8.6,15
2013/1/25 7:57,4.3,13,4.6,12,8.2,11
2013/1/25 7:58,4.4,12,4.4,12,6.8,11
2013/1/25 7:59,4.2,13,4.3,12,6.3,14
2013/1/25 8:00,4.4,13,4.4,12,9.7,14
2013/1/25 8:01,4.7,13,4.7,12,12.1,14
2013/1/25 8:02,4.5,13,4.7,13,8.7,15
2013/1/25 8:03,4.3,13,4.5,13,7,11
2013/1/25 8:04,4.5,13,4.5,13,6.7,13
2013/1/25 8:05,4.4,13,4.5,13,10.7,13
2013/1/25 8:06,4.5,13,4.5,13,7.7,12
2013/1/25 8:07,4.7,13,4.7,13,10.8,12
2013/1/25 8:08,4.8,13,4.8,13,8.4,11
2013/1/25 8:09,5.1,13,5.1,13,13.2,13
2013/1/25 8:10,5,13,5.1,13,11.3,12
2013/1/25 8:11,4.9,12,5.1,13,9.3,12
2013/1/25 8:12,4.8,12,4.9,13,9,9
2013/1/25 8:13,4.8,12,4.8,13,8.7,13
2013/1/25 8:14,4.9,12,4.9,13,6.5,9
2013/1/25 8:15,4.7,12,4.9,13,4.7,13
2013/1/25 8:16,4.7,12,4.7,13,10.5,12
2013/1/25 8:17,4.6,12,4.8,13,9.5,12
2013/1/25 8:18,4.5,12,4.6,13,8.6,10
2013/1/25 8:19,4.5,12,4.6,13,11.3,12
2013/1/25 8:20,4.4,12,4.5,12,6.8,11
2013/1/25 8:21,4.3,12,4.4,12,7.5,13
2013/1/25 8:22,4.4,12,4.5,12,7,12
2013/1/25 8:23,4.4,12,4.5,12,11,11
2013/1/25 8:24,4.5,12,4.5,12,10.5,13
2013/1/25 8:25,4.6,12,4.6,12,6,11
2013/1/25 8:26,4.6,11,4.8,12,10.5,14
2013/1/25 8:27,4.4,11,4.6,12,8.9,11
2013/1/25 8:28,4.7,11,4.7,12,10.3,11
2013/1/25 8:29,4.9,11,4.9,11,12.2,11
2013/1/25 8:30,5,11,5,11,8.9,11
2013/1/25 8:31,5,11,5.1,11,9.9,10
2013/1/25 8:32,5.1,11,5.1,11,8.5,12
2013/1/25 8:33,5.2,11,5.2,11,10.9,10
2013/1/25 8:34,5.3,11,5.4,11,14.2,11
2013/1/25 8:35,5.4,11,5.4,11,7.7,11
2013/1/25 8:36,5.5,11,5.5,11,13.4,12
2013/1/25 8:37,5.8,11,5.8,11,13.3,12
2013/1/25 8:38,5.9,11,6,11,13.2,13
2013/1/25 8:39,5.9,12,6,11,13,12
2013/1/25 8:40,5.9,12,5.9,11,10.1,12
2013/1/25 8:41,6.1,12,6.1,12,7.9,9
2013/1/25 8:42,6.2,12,6.3,12,11.9,12
2013/1/25 8:43,6,12,6.2,12,7.7,13
2013/1/25 8:44,6.1,12,6.1,12,14.2,13
2013/1/25 8:45,6.2,12,6.3,12,10.8,12
2013/1/25 8:46,6,12,6.2,12,9.2,9
2013/1/25 8:47,5.9,12,6.1,12,7.8,8
2013/1/25 8:48,5.7,12,5.9,12,10.2,9
2013/1/25 8:49,5.4,12,5.7,12,11.5,12
2013/1/25 8:50,5.6,12,5.6,12,11,12
2013/1/25 8:51,5.7,12,5.8,12,11.1,12
2013/1/25 8:52,5.4,12,5.6,12,7.9,13
2013/1/25 8:53,5.2,12,5.3,12,7.4,10
2013/1/25 8:54,4.9,12,5.2,12,12.4,9
2013/1/25 8:55,4.8,12,5,12,9.5,10
2013/1/25 8:56,5,12,5,12,13.2,9
2013/1/25 8:57,5.3,12,5.3,12,14.7,13
2013/1/25 8:58,5.3,12,5.3,12,9,12
2013/1/25 8:59,5.2,12,5.4,12,9.2,9
2013/1/25 9:00,5.2,12,5.3,12,17.9,10
2013/1/25 9:01,5,12,5.1,12,7.8,12
2013/1/25 9:02,5.1,12,5.1,12,6.9,12
2013/1/25 9:03,5.3,12,5.3,12,9.1,14
2013/1/25 9:04,5.3,12,5.4,12,6.9,13
2013/1/25 9:05,5.4,12,5.4,12,10.8,11
2013/1/25 9:06,5.3,12,5.4,12,12.2,10
2013/1/25 9:07,5.1,12,5.2,12,12.3,12
2013/1/25 9:08,5.2,12,5.2,12,11.9,13
2013/1/25 9:09,5,12,5.1,12,6.4,13
2013/1/25 9:10,4.8,12,4.9,12,9,10
2013/1/25 9:11,5.1,12,5.1,12,12.6,12
2013/1/25 9:12,5.3,12,5.3,12,13.9,11
2013/1/25 9:13,5.6,12,5.6,12,14.1,13
2013/1/25 9:14,5.9,12,5.9,12,12.4,13
2013/1/25 9:15,6.2,12,6.2,12,12.6,12
2013/1/25 9:16,6.3,12,6.3,12,11.5,12
2013/1/25 9:17,6,12,6.2,12,7.8,12
2013/1/25 9:18,5.9,11,6.2,12,9.4,10
2013/1/25 9:19,5.9,11,5.9,12,7.8,8
2013/1/25 9:20,5.7,11,5.9,12,7.4,12
2013/1/25 9:21,5.4,11,5.7,12,6.9,10
2013/1/25 9:22,5.1,11,5.3,12,7.6,12
2013/1/25 9:23,4.8,11,5.1,12,8.2,11
2013/1/25 9:24,4.5,12,4.8,12,8.1,14
2013/1/25 9:25,4.3,11,4.6,12,10,9
2013/1/25 9:26,4.2,11,4.3,12,9.7,9
2013/1/25 9:27,4.3,11,4.3,12,10.3,10
2013/1/25 9:28,4.5,11,4.5,11,15.7,11
2013/1/25 9:29,4.6,11,4.6,11,7.9,10
2013/1/25 9:30,4.8,11,4.8,11,9.2,9
2013/1/25 9:31,5,11,5,11,12.6,12
2013/1/25 9:32,5.3,11,5.3,11,12.1,11
2013/1/25 9:33,5.1,11,5.3,11,7.4,10
2013/1/25 9:34,5,11,5.1,11,5.5,14
2013/1/25 9:35,4.8,11,5,11,7.9,9
2013/1/25 9:36,5.2,12,5.2,11,14.4,13
2013/1/25 9:37,5.3,12,5.3,11,10.1,12
2013/1/25 9:38,4.9,12,5.3,11,6.5,15
2013/1/25 9:39,4.7,12,4.9,11,6.4,10
2013/1/25 9:40,4.8,12,4.8,11,8.4,11
2013/1/25 9:41,4.6,12,4.8,11,7.6,11
2013/1/25 9:42,4.4,12,4.6,11,9.7,12
2013/1/25 9:43,4.4,12,4.4,12,7.6,12
2013/1/25 9:44,4.4,12,4.5,12,5.6,13
2013/1/25 9:45,4.5,12,4.6,12,7.2,9
2013/1/25 9:46,4.2,12,4.4,12,13,11
2013/1/25 9:47,3.9,11,4.1,12,9,11
2013/1/25 9:48,4,11,4,12,10.3,11
2013/1/25 9:49,4.3,12,4.3,12,11.6,12
2013/1/25 9:50,4.6,12,4.6,12,10.7,12
2013/1/25 9:51,4.9,12,4.9,12,10.6,14
2013/1/25 9:52,5,12,5,12,9.3,11
2013/1/25 9:53,5,12,5,12,7.6,13
2013/1/25 9:54,5.2,12,5.2,12,7.5,12
2013/1/25 9:55,5.4,12,5.4,12,8.1,12
2013/1/25 9:56,5.4,12,5.5,12,9.9,10
2013/1/25 9:57,5.2,12,5.4,12,5.2,11
2013/1/25 9:58,5.2,13,5.3,12,6.8,14
2013/1/25 9:59,4.9,12,5.1,12,7.5,10
2013/1/25 10:00,4.4,12,4.9,12,5,9
2013/1/25 10:01,4.2,12,4.3,12,9.5,12
2013/1/25 10:02,4,12,4.2,12,6.1,12
2013/1/25 10:03,4.2,12,4.2,12,10.1,13
2013/1/25 10:04,4.2,12,4.2,12,8.5,10
2013/1/25 10:05,4.5,12,4.5,12,15.9,8
2013/1/25 10:06,4.4,12,4.5,12,11.9,9
2013/1/25 10:07,4.8,12,4.8,13,11.6,14
2013/1/25 10:08,5.1,11,5.1,13,11.1,13
2013/1/25 10:09,5.3,12,5.3,12,10.1,14
2013/1/25 10:10,5.7,12,5.7,12,10.2,12
2013/1/25 10:11,5.8,12,5.8,12,13.5,13
2013/1/25 10:12,6.3,12,6.3,12,14.4,14
2013/1/25 10:13,5.9,12,6.3,12,5.2,15
2013/1/25 10:14,5.6,12,5.8,12,7.9,12
2013/1/25 10:15,5.4,12,5.7,12,7.7,13
2013/1/25 10:16,5.3,12,5.5,12,7.7,12
2013/1/25 10:17,5.4,12,5.5,12,14.1,16
2013/1/25 10:18,5.3,13,5.5,12,12.7,15
2013/1/25 10:19,5.5,13,5.5,12,11.3,14
2013/1/25 10:20,5.3,13,5.4,12,7.4,12
2013/1/25 10:21,5.2,13,5.4,12,8.6,13
2013/1/25 10:22,4.8,13,5.2,12,7.9,13
2013/1/25 10:23,5.4,13,5.4,12,12.3,12
2013/1/25 10:24,5.9,13,5.9,13,12.3,13
2013/1/25 10:25,6,13,6,13,10,13
2013/1/25 10:26,6,13,6.2,13,10.5,14
2013/1/25 10:27,5.7,13,6,13,8.7,15
2013/1/25 10:28,5.5,13,5.7,13,8.3,12
2013/1/25 10:29,5.4,13,5.5,13,9.8,12
2013/1/25 10:30,5.5,13,5.5,13,7.9,13
2013/1/25 10:31,5.4,13,5.6,13,7.6,10
2013/1/25 10:32,5.4,13,5.4,13,9.7,12
2013/1/25 10:33,5.1,13,5.5,13,9.5,13
2013/1/25 10:34,5,13,5.2,13,13.3,13
2013/1/25 10:35,5.2,13,5.2,13,12.8,13
2013/1/25 10:36,5.2,13,5.2,13,9.9,13
2013/1/25 10:37,5.1,12,5.2,13,4.2,12
2013/1/25 10:38,5,12,5.1,13,8.4,13
2013/1/25 10:39,4.8,13,5,13,8.2,15
2013/1/25 10:40,4.9,13,4.9,13,12.4,12
2013/1/25 10:41,5.1,13,5.1,13,11.4,12
2013/1/25 10:42,5.2,12,5.2,13,9.4,12
2013/1/25 10:43,5.4,12,5.4,12,13.4,12
2013/1/25 10:44,5.4,12,5.4,12,12.2,12
2013/1/25 10:45,4.8,12,5.3,12,5.7,12
2013/1/25 10:46,5,12,5,12,10.5,12
2013/1/25 10:47,5.1,12,5.1,12,6.4,12
2013/1/25 10:48,5.3,12,5.3,12,9.4,12
2013/1/25 10:49,5.4,12,5.5,12,10.3,12
2013/1/25 10:50,5.3,12,5.4,12,8.4,12
2013/1/25 10:51,5.3,12,5.4,12,8.3,9
2013/1/25 10:52,5.3,12,5.4,12,9.5,10
2013/1/25 10:53,5.1,12,5.3,12,9.5,9
2013/1/25 10:54,4.9,12,5.2,12,7.4,12
2013/1/25 10:55,5.2,12,5.2,12,11.4,12